Regional Weather Roundup
Issued by NWS

Home | Current Version | Previous Version | Graphics & Text | Print | Product List | Glossary On
Versions: 1 2 3 4 5 6 7 8 9 10 11 12 13 14 15 16 17 18 19 20 21 22 23 24 25 26 27 28 29 30 31 32 33 34 35 36 37 38 39 40 41 42 43 44 45 46 47 48 49 50
752
ASUS45 KBOU 270107
RWRCO

WEATHER ROUNDUP FOR COLORADO
NATIONAL WEATHER SERVICE DENVER/BOULDER CO
700 PM MDT THU MAY 26 2016

NOTE: "FAIR" INDICATES FEW OR NO CLOUDS BELOW 12000 FEET WITH NO
SIGNIFICANT WEATHER AND/OR OBSTRUCTIONS TO VISIBILITY.

COZ001>005-013-030-031-270200-
...NORTHWEST COLORADO...

CITY           SKY/WX    TMP DP  RH WIND       PRES   REMARKS
CRAIG          CLOUDY    55  35  47 W21G31    29.92R
HAYDEN         PTSUNNY   54  30  40 W15G22    29.91R
MEEKER         PTSUNNY   54  37  52 S3        29.92F
MOUNT WERNER   NOT AVBL
STEAMBOAT SPGS CLOUDY    54  30  39 SW8G17    29.90R
WALDEN         PTSUNNY   43  32  65 S3        29.99F
$$

COZ006>008-011-270200-
...WEST CENTRAL VALLEYS...

CITY           SKY/WX    TMP DP  RH WIND       PRES   REMARKS
GRAND JUNCTION CLOUDY    65  28  24 N15       29.84R
MONTROSE       FAIR      63  29  27 SE14      29.89S
EAGLE          PTSUNNY   55  34  44 CALM      29.94R
RIFLE          PTSUNNY   62  30  29 SW7       29.86F
DELTA          NOT AVBL
NUCLA          NOT AVBL
$$

COZ017>023-064>068-270200-
...SOUTHWEST COLORADO...

CITY           SKY/WX    TMP DP  RH WIND       PRES   REMARKS
DURANGO        FAIR      56  25  30 NW12      29.91S
CORTEZ         FAIR      56  32  40 SW9       29.93S
PAGOSA SPRINGS NOT AVBL
TELLURIDE      NOT AVBL
WOLF CREEK PAS   N/A     27  27 100 CALM      30.13S
$$

COZ009-010-012-014-032>034-037-058>063-270200-
...CENTRAL COLORADO...

CITY           SKY/WX    TMP DP  RH WIND       PRES   REMARKS
ASPEN          PTSUNNY   49  30  48 NW16G29   29.96R
BUENA VISTA    NOT AVBL
COPPER MTN     NOT AVBL
BERTHOUD PASS  HAZE      25  16  68 N10G17    30.11S VSB<1/4 WCI  15
COTTONWOOD PAS CLOUDY    41  32  70 NW6G17    30.02R
GUNNISON       FAIR      48  32  53 SW9       29.98R
KREMMLING      CLOUDY    50  28  43 NW9       29.96S
LEADVILLE      CLOUDY    37  28  70 NE13G20   30.02R
MONARCH PASS   SNOW      28  28 100 W13       30.20R VSB<1/4 WCI  18
SALIDA         NOT AVBL
SUNLIGHT       CLOUDY    36  32  87 W5        30.12R
WILKERSON PASS CLOUDY    32  30  93 E8        30.10R VSB<1/4 WCI  25
$$

COZ069>075-270200-
...SAN LUIS VALLEY/SANGRE DE CRISTO MOUNTAINS...

CITY           SKY/WX    TMP DP  RH WIND       PRES   REMARKS
ALAMOSA        PTSUNNY   50  29  44 SW7       29.95R
LA VETA PASS   CLOUDY    34  32  93 S8G22     30.01S WCI  27
SAGUACHE       PTSUNNY   48  32  53 NW16      29.97R
$$

COZ035-036-038>040-270200-
...NORTHERN COLORADO FRONT RANGE...

CITY           SKY/WX    TMP DP  RH WIND       PRES   REMARKS
DENVER INTL AP LGT RAIN  46  42  86 NW6       29.93R
DMNS CITY PARK   N/A     48  45  90 NE1G13    29.94R
AURORA         LGT RAIN  46  45  99 CALM      29.96R
FRONT RANGE AP LGT RAIN  45  43  93 NE6       29.93S
ERIE MUNI ARPT CLOUDY    49  45  85 SW3       29.92F
BOULDER MUN AP CLOUDY    50  45  81 S5        29.91F
CENTENNIAL     LGT RAIN  46  43  89 NE6       29.95R
BROOMFIELD     CLOUDY    48  45  87 W6        29.94S
FORT COLLINS   FAIR      52  43  71 W3        29.89F
LONGMONT       CLOUDY    54  42  63 CALM      29.91F
$$

COZ041-046-047-076>085-087-088-270200-
...PIKES PEAK/PALMER DIVIDE AND SOUTHERN FOOTHILLS...

CITY           SKY/WX    TMP DP  RH WIND       PRES   REMARKS
COLO. SPRINGS  LGT RAIN  45  42  89 N18       29.94S
A. F. ACADEMY  LGT RAIN  43  41  93 N7        29.96R
SCHRIEVER AFB  NOT AVBL
ELLICOTT       CLOUDY   N/A N/A N/A NE26G35   29.85F
FALCON         LGT RAIN  40  37  91 N9        29.97S
FORT CARSON    LGT RAIN  46  43  88 N22       29.90R
LIMON          RAIN      43  41  93 NW8       30.00R FOG
MONUMENT HILL  LGT RAIN  39  36  87 E8        30.00R
TRINIDAD       FAIR      61  31  32 NW23G32   29.82R
$$

COZ042>045-048>051-090-091-270200-
...NORTHEAST COLORADO...

CITY           SKY/WX    TMP DP  RH WIND       PRES   REMARKS
GREELEY ARPT   CLOUDY    50  46  87 CALM      29.90R
AKRON          TSTM      49  46  90 W18       29.87R
BURLINGTON     LGT RAIN  50  44  80 NW45G60   29.79S
WRAY           NOT AVBL
STERLING       CLOUDY    55  45  67 N22G32    29.79F
HOLYOKE        PTSUNNY   66  43  42 N21G31    29.74F
FORT MORGAN    NOT AVBL
$$

COZ086-089-092>099-270200-
...SOUTHEAST COLORADO...

CITY           SKY/WX    TMP DP  RH WIND       PRES   REMARKS
PUEBLO         FAIR      56  41  57 N24G33    29.82R
LA JUNTA       FAIR      59  47  64 SW6       29.73F
LAMAR          FAIR      61  44  53 N23G44    29.66F
SPRINGFIELD      N/A     62  43  49 NW25G35   29.73R
$$




USA.gov is the U.S. government's official web portal to all federal, state and local government web resources and services.